Regional Weather Roundup
Issued by NWS Spokane, WA

Home | Current Version | Previous Version | Text Only | Print | Product List | Glossary On
Versions: 1 2 3 4 5 6 7 8 9 10 11 12 13 14 15 16 17 18 19 20 21 22 23 24 25 26 27 28 29 30 31 32 33 34 35 36 37 38 39 40 41 42 43 44 45 46 47 48 49 50
000
NZUS01 KOTX 282010
RWROTX
EASTERN WASHINGTON/NORTHERN IDAHO ROUNDUP
NATIONAL WEATHER SERVICE, SPOKANE WA
1200 PM PST SAT FEB 28 2015

Note: "fair" indicated few or no clouds below 12,000 feet with no
significant weather and/or obstructions to visibility.

...NORTHEAST WASHINGTON AND NORTHERN IDAHO PANHANDLE...

CITY           SKY/WX    TMP DP  RH WIND       PRES   REMARKS
SPOKANE INTL   SUNNY     38   4  24 E10       30.11S
SPOKANE DOWNTO SUNNY     41   3  20 NE7G23    30.13F
COEUR D ALENE  SUNNY     37  10  32 N18       30.11F
DEER PARK      SUNNY     40   1  19 NE16G23   30.14F
SANDPOINT      SUNNY     37   0  20 N14G22    30.16S
BONNERS FERRY  FAIR      36   5  27 W6        30.17F

...SOUTHEAST WASHINGTON AND SOUTHERN IDAHO PANHANDLE...

CITY           SKY/WX    TMP DP  RH WIND       PRES   REMARKS
WALLA WALLA    SUNNY     45  23  42 SE5       30.09S
PULLMAN/MOSCOW SUNNY     41  12  30 MISG      30.06R
LEWISTON       SUNNY     44  15  31 CALM      30.07R
LOWELL           N/A     49  13  23 VRB6      30.04F

...COLUMBIA BASIN...

CITY           SKY/WX    TMP DP  RH WIND       PRES   REMARKS
EPHRATA        SUNNY     48  18  30 NE15      30.16S
MOSES LAKE     SUNNY     48  15  26 NE14      30.17R
TRI CITIES     SUNNY     49  13  23 N17G26    30.16S
HERMISTON      SUNNY     48  14  25 N14       30.14S
PENDLETON      SUNNY     42  19  39 N9        30.10R

...EAST SLOPES CASCADES...

CITY           SKY/WX    TMP DP  RH WIND       PRES   REMARKS
THE DALLES     SUNNY     53  20  27 E12G17    30.17S
YAKIMA         MOSUNNY   51  18  27 NE23      30.17S
ELLENSBURG     SUNNY     51  15  23 E14G21    30.15S
WENATCHEE      SUNNY     48  17  29 W8        30.18F
OMAK           SUNNY     46  13  26 N21G26    30.20F

...SOUTHERN BRITISH COLUMBIA...

CITY           SKY/WX    TMP DP  RH WIND       PRES   REMARKS
PENTICTON      SUNNY     45  14  29 N18G25    30.26F
CASTLEGAR      MOSUNNY   39  19  45 N14       30.19F
CRANBROOK      MOSUNNY   30   7  37 VRB3      30.17F

...WESTERN MONTANA...

CITY           SKY/WX    TMP DP  RH WIND       PRES   REMARKS
MISSOULA       SUNNY     31   6  35 SE15      30.11F WCI  20

...NEIGHBORING CITIES...

CITY           SKY/WX    TMP DP  RH WIND       PRES   REMARKS
SEATTLE        MOSUNNY   51  26  37 N15       30.20R



USA.gov is the U.S. government's official web portal to all federal, state and local government web resources and services.